Time,TemperatureF,DewpointF,PressureIn,WindDirection,WindDirectionDegrees,WindSpeedMPH,WindSpeedGustMPH,Humidity,HourlyPrecipIn,Conditions,Clouds,dailyrainin,SoftwareType,DateUTC
2013-10-17 00:04:00,55.0,-99.9,-100.00,SW,231,15.0,18.0,-999,-99.99,,,-99.99,,2013-10-17 04:04:00,
2013-10-17 00:24:00,55.0,-99.9,-100.00,WSW,240,13.0,17.0,-999,-99.99,,,-99.99,,2013-10-17 04:24:00,
2013-10-17 00:34:00,55.0,-99.9,-100.00,WSW,240,13.0,17.0,-999,-99.99,,,-99.99,,2013-10-17 04:34:00,
2013-10-17 00:43:00,55.0,-99.9,-100.00,WSW,240,13.0,17.0,-999,-99.99,,,-99.99,,2013-10-17 04:43:00,
2013-10-17 00:54:00,55.0,-99.9,-100.00,WSW,244,13.0,18.0,-999,-99.99,,,-99.99,,2013-10-17 04:54:00,
2013-10-17 01:04:00,55.0,-99.9,-100.00,WSW,244,13.0,18.0,-999,-99.99,,,-99.99,,2013-10-17 05:04:00,
2013-10-17 01:23:00,54.0,-99.9,-100.00,SW,232,12.0,15.0,-999,-99.99,,,-99.99,,2013-10-17 05:23:00,
2013-10-17 01:34:00,54.0,-99.9,-100.00,SW,232,12.0,15.0,-999,-99.99,,,-99.99,,2013-10-17 05:34:00,
2013-10-17 02:22:00,54.0,-99.9,-100.00,WSW,240,11.0,14.0,-999,-99.99,,,-99.99,,2013-10-17 06:22:00,
2013-10-17 02:33:00,54.0,-99.9,-100.00,WSW,240,11.0,14.0,-999,-99.99,,,-99.99,,2013-10-17 06:33:00,
2013-10-17 03:12:00,55.0,-99.9,-100.00,WSW,241,12.0,16.0,-999,-99.99,,,-99.99,,2013-10-17 07:12:00,
2013-10-17 03:22:00,54.0,-99.9,-100.00,WSW,239,11.0,13.0,-999,-99.99,,,-99.99,,2013-10-17 07:22:00,
2013-10-17 03:43:00,54.0,-99.9,-100.00,SW,234,12.0,17.0,-999,-99.99,,,-99.99,,2013-10-17 07:43:00,
2013-10-17 03:52:00,54.0,-99.9,-100.00,SW,234,12.0,17.0,-999,-99.99,,,-99.99,,2013-10-17 07:52:00,
2013-10-17 04:12:00,54.0,-99.9,-100.00,SW,234,12.0,17.0,-999,-99.99,,,-99.99,,2013-10-17 08:12:00,
2013-10-17 04:22:00,54.0,-99.9,-100.00,SW,221,10.0,14.0,-999,-99.99,,,-99.99,,2013-10-17 08:22:00,
2013-10-17 04:32:00,54.0,-99.9,-100.00,SW,221,10.0,14.0,-999,-99.99,,,-99.99,,2013-10-17 08:32:00,
2013-10-17 04:52:00,54.0,-99.9,-100.00,SW,225,9.0,16.0,-999,-99.99,,,-99.99,,2013-10-17 08:52:00,
2013-10-17 05:02:00,54.0,-99.9,-100.00,SW,225,9.0,16.0,-999,-99.99,,,-99.99,,2013-10-17 09:02:00,
2013-10-17 05:11:00,54.0,-99.9,-100.00,SW,225,9.0,16.0,-999,-99.99,,,-99.99,,2013-10-17 09:11:00,
2013-10-17 05:22:00,53.0,-99.9,-100.00,SW,223,13.0,15.0,-999,-99.99,,,-99.99,,2013-10-17 09:22:00,
2013-10-17 05:33:00,53.0,-99.9,-100.00,SW,223,13.0,15.0,-999,-99.99,,,-99.99,,2013-10-17 09:33:00,
2013-10-17 05:53:00,53.0,-99.9,-100.00,SSW,212,11.0,15.0,-999,-99.99,,,-99.99,,2013-10-17 09:53:00,
2013-10-17 06:12:00,53.0,-99.9,-100.00,SSW,212,11.0,15.0,-999,-99.99,,,-99.99,,2013-10-17 10:12:00,
2013-10-17 06:23:00,53.0,-99.9,-100.00,WSW,241,12.0,15.0,-999,-99.99,,,-99.99,,2013-10-17 10:23:00,
2013-10-17 06:42:00,53.0,-99.9,-100.00,SSW,212,11.0,15.0,-999,-99.99,,,-99.99,,2013-10-17 10:42:00,
2013-10-17 07:12:00,53.0,-99.9,-100.00,SW,228,15.0,19.0,-999,-99.99,,,-99.99,,2013-10-17 11:12:00,
2013-10-17 07:22:00,54.0,-99.9,-100.00,SW,218,18.0,21.0,-999,-99.99,,,-99.99,,2013-10-17 11:22:00,
2013-10-17 07:33:00,54.0,-99.9,-100.00,SW,218,18.0,21.0,-999,-99.99,,,-99.99,,2013-10-17 11:33:00,
2013-10-17 07:42:00,54.0,-99.9,-100.00,SW,218,18.0,21.0,-999,-99.99,,,-99.99,,2013-10-17 11:42:00,
2013-10-17 07:52:00,54.0,-99.9,-100.00,SW,223,16.0,21.0,-999,-99.99,,,-99.99,,2013-10-17 11:52:00,
2013-10-17 08:02:00,54.0,-99.9,-100.00,SW,223,16.0,21.0,-999,-99.99,,,-99.99,,2013-10-17 12:02:00,
2013-10-17 08:22:00,54.0,-99.9,-100.00,SW,230,12.0,16.0,-999,-99.99,,,-99.99,,2013-10-17 12:22:00,
2013-10-17 08:32:00,54.0,-99.9,-100.00,SW,230,12.0,16.0,-999,-99.99,,,-99.99,,2013-10-17 12:32:00,
2013-10-17 08:52:00,54.0,-99.9,-100.00,SW,224,11.0,19.0,-999,-99.99,,,-99.99,,2013-10-17 12:52:00,
2013-10-17 09:11:00,54.0,-99.9,-100.00,SW,224,11.0,19.0,-999,-99.99,,,-99.99,,2013-10-17 13:11:00,
2013-10-17 09:22:00,54.0,-99.9,-100.00,SSW,211,13.0,16.0,-999,-99.99,,,-99.99,,2013-10-17 13:22:00,
2013-10-17 09:42:00,54.0,-99.9,-100.00,SW,224,11.0,19.0,-999,-99.99,,,-99.99,,2013-10-17 13:42:00,
2013-10-17 09:52:00,54.0,-99.9,-100.00,SW,224,11.0,19.0,-999,-99.99,,,-99.99,,2013-10-17 13:52:00,
2013-10-17 10:11:00,54.0,-99.9,-100.00,SSW,208,12.0,16.0,-999,-99.99,,,-99.99,,2013-10-17 14:11:00,
2013-10-17 10:22:00,53.0,-99.9,-100.00,South,188,16.0,22.0,-999,-99.99,,,-99.99,,2013-10-17 14:22:00,
2013-10-17 10:32:00,53.0,-99.9,-100.00,South,188,16.0,22.0,-999,-99.99,,,-99.99,,2013-10-17 14:32:00,
2013-10-17 10:52:00,54.0,-99.9,-100.00,SSW,208,12.0,16.0,-999,-99.99,,,-99.99,,2013-10-17 14:52:00,
2013-10-17 11:11:00,51.0,-99.9,-100.00,South,176,10.0,22.0,-999,-99.99,,,-99.99,,2013-10-17 15:11:00,
2013-10-17 11:22:00,50.0,-99.9,-100.00,South,177,11.0,18.0,-999,-99.99,,,-99.99,,2013-10-17 15:22:00,
2013-10-17 11:33:00,50.0,-99.9,-100.00,South,177,11.0,18.0,-999,-99.99,,,-99.99,,2013-10-17 15:33:00,
2013-10-17 11:54:00,51.0,-99.9,-100.00,South,176,10.0,22.0,-999,-99.99,,,-99.99,,2013-10-17 15:54:00,
2013-10-17 12:13:00,50.0,-99.9,-100.00,South,173,10.0,23.0,-999,-99.99,,,-99.99,,2013-10-17 16:13:00,
2013-10-17 12:23:00,50.0,-99.9,-100.00,South,177,12.0,19.0,-999,-99.99,,,-99.99,,2013-10-17 16:23:00,
2013-10-17 12:33:00,50.0,-99.9,-100.00,South,177,12.0,19.0,-999,-99.99,,,-99.99,,2013-10-17 16:33:00,
2013-10-17 12:54:00,50.0,-99.9,-100.00,South,171,12.0,23.0,-999,-99.99,,,-99.99,,2013-10-17 16:54:00,
2013-10-17 13:12:00,50.0,-99.9,-100.00,South,171,12.0,23.0,-999,-99.99,,,-99.99,,2013-10-17 17:12:00,
2013-10-17 13:22:00,50.0,-99.9,-100.00,South,177,14.0,19.0,-999,-99.99,,,-99.99,,2013-10-17 17:22:00,
2013-10-17 13:42:00,50.0,-99.9,-100.00,South,171,12.0,23.0,-999,-99.99,,,-99.99,,2013-10-17 17:42:00,
2013-10-17 13:53:00,50.0,-99.9,-100.00,South,171,12.0,23.0,-999,-99.99,,,-99.99,,2013-10-17 17:53:00,
2013-10-17 14:12:00,52.0,-99.9,-100.00,South,182,16.0,26.0,-999,-99.99,,,-99.99,,2013-10-17 18:12:00,
2013-10-17 14:22:00,52.0,-99.9,-100.00,SW,216,22.0,27.0,-999,-99.99,,,-99.99,,2013-10-17 18:22:00,
2013-10-17 14:32:00,52.0,-99.9,-100.00,SW,216,22.0,27.0,-999,-99.99,,,-99.99,,2013-10-17 18:32:00,
2013-10-17 14:52:00,52.0,-99.9,-100.00,SW,223,27.0,0.0,-999,-99.99,,,-99.99,,2013-10-17 18:52:00,
2013-10-17 15:12:00,52.0,-99.9,-100.00,SW,223,27.0,0.0,-999,-99.99,,,-99.99,,2013-10-17 19:12:00,
2013-10-17 15:22:00,51.0,-99.9,-100.00,SW,229,21.0,26.0,-999,-99.99,,,-99.99,,2013-10-17 19:22:00,
2013-10-17 15:32:00,51.0,-99.9,-100.00,SW,229,21.0,26.0,-999,-99.99,,,-99.99,,2013-10-17 19:32:00,
2013-10-17 16:12:00,52.0,-99.9,-100.00,WSW,241,17.0,26.0,-999,-99.99,,,-99.99,,2013-10-17 20:12:00,
2013-10-17 16:22:00,51.0,-99.9,-100.00,WSW,250,16.0,21.0,-999,-99.99,,,-99.99,,2013-10-17 20:22:00,
2013-10-17 16:42:00,52.0,-99.9,-100.00,WSW,241,17.0,26.0,-999,-99.99,,,-99.99,,2013-10-17 20:42:00,
2013-10-17 16:52:00,52.0,-99.9,-100.00,WSW,241,17.0,26.0,-999,-99.99,,,-99.99,,2013-10-17 20:52:00,
2013-10-17 17:02:00,52.0,-99.9,-100.00,WSW,241,17.0,26.0,-999,-99.99,,,-99.99,,2013-10-17 21:02:00,
2013-10-17 17:22:00,52.0,-99.9,-100.00,SW,233,18.0,20.0,-999,-99.99,,,-99.99,,2013-10-17 21:22:00,
2013-10-17 17:34:00,52.0,-99.9,-100.00,SW,233,18.0,20.0,-999,-99.99,,,-99.99,,2013-10-17 21:34:00,
2013-10-17 17:54:00,52.0,-99.9,-100.00,WSW,237,16.0,22.0,-999,-99.99,,,-99.99,,2013-10-17 21:54:00,
2013-10-17 18:04:00,52.0,-99.9,-100.00,WSW,237,16.0,22.0,-999,-99.99,,,-99.99,,2013-10-17 22:04:00,
2013-10-17 19:13:00,52.0,-99.9,-100.00,West,279,10.0,22.0,-999,-99.99,,,-99.99,,2013-10-17 23:13:00,
2013-10-17 19:23:00,52.0,-99.9,-100.00,WSW,247,17.0,22.0,-999,-99.99,,,-99.99,,2013-10-17 23:23:00,
2013-10-17 19:34:00,52.0,-99.9,-100.00,WSW,247,17.0,22.0,-999,-99.99,,,-99.99,,2013-10-17 23:34:00,
2013-10-17 19:53:00,53.0,-99.9,-100.00,WSW,249,17.0,24.0,-999,-99.99,,,-99.99,,2013-10-17 23:53:00,
2013-10-17 20:02:00,53.0,-99.9,-100.00,WSW,249,17.0,24.0,-999,-99.99,,,-99.99,,2013-10-18 00:02:00,
2013-10-17 20:42:00,53.0,-99.9,-100.00,WSW,244,16.0,21.0,-999,-99.99,,,-99.99,,2013-10-18 00:42:00,
2013-10-17 20:53:00,53.0,-99.9,-100.00,WSW,254,17.0,22.0,-999,-99.99,,,-99.99,,2013-10-18 00:53:00,
2013-10-17 21:02:00,53.0,-99.9,-100.00,WSW,254,17.0,22.0,-999,-99.99,,,-99.99,,2013-10-18 01:02:00,
2013-10-17 21:22:00,54.0,-99.9,-100.00,WSW,256,18.0,23.0,-999,-99.99,,,-99.99,,2013-10-18 01:22:00,
2013-10-17 21:32:00,54.0,-99.9,-100.00,WSW,256,18.0,23.0,-999,-99.99,,,-99.99,,2013-10-18 01:32:00,
2013-10-17 21:53:00,53.0,-99.9,-100.00,WSW,254,17.0,22.0,-999,-99.99,,,-99.99,,2013-10-18 01:53:00,
2013-10-17 22:12:00,54.0,-99.9,-100.00,WSW,243,17.0,24.0,-999,-99.99,,,-99.99,,2013-10-18 02:12:00,
2013-10-17 22:22:00,53.0,-99.9,-100.00,WSW,250,17.0,22.0,-999,-99.99,,,-99.99,,2013-10-18 02:22:00,
2013-10-17 22:33:00,53.0,-99.9,-100.00,WSW,250,17.0,22.0,-999,-99.99,,,-99.99,,2013-10-18 02:33:00,
2013-10-17 22:52:00,54.0,-99.9,-100.00,WSW,243,17.0,24.0,-999,-99.99,,,-99.99,,2013-10-18 02:52:00,
2013-10-17 23:11:00,53.0,-99.9,-100.00,WSW,240,17.0,24.0,-999,-99.99,,,-99.99,,2013-10-18 03:11:00,
2013-10-17 23:22:00,54.0,-99.9,-100.00,WSW,255,12.0,18.0,-999,-99.99,,,-99.99,,2013-10-18 03:22:00,
2013-10-17 23:44:00,53.0,-99.9,-100.00,WSW,240,17.0,24.0,-999,-99.99,,,-99.99,,2013-10-18 03:44:00,
2013-10-17 23:55:00,54.0,-99.9,-100.00,WSW,244,14.0,24.0,-999,-99.99,,,-99.99,,2013-10-18 03:55:00,